sat.trackr.live / text

‹ back to catalog

STARLINK-5724

NORAD 56427 · 2023-061BF

PAYLOAD ACTIVE UNKNOWN

§ Identity

Operator
Country
US
Launch date
2023-05-04
Launch site
AFETR
Launch vehicle
Mass (kg)
RCS (m²)

Purposes: comms

External: N2YO · Heavens-Above · Gunter

§ Orbital elements

Epoch: 2026-05-25T04:19:43.308768Z

Period
94.27 min
Inclination
43.0033°
Eccentricity
0.0001111
Mean motion
15.27576861 rev/d
Perigee alt
482.3 km
Apogee alt
483.8 km
Semi-major
6,861.2 km
B*
2.5603e-5
RAAN
107.9268°
Arg perigee
265.9041°
Mean anomaly
94.1683°
Rev number
16,865

§ Raw data

STARLINK-57241 56427U 23061BF  26145.18036237  .00000442  00000+0  25603-4 0  99932 56427  43.0033 107.9268 0001111 265.9041  94.1683 15.27576861168658

JSON: /api/v1/satellites/56427 · /tle

For live sub-satellite position, see the globe view (requires WebGL).

§ Visibility from observer

Set your observer location to see the next 7 days of passes ≥ 10°. The values pass through the URL so the page stays shareable.

No JS? Fill the form by hand. The geolocation button needs JavaScript.